STARLINK-4145 (53137 NORAD) Tracking and Keplerian Element Data

This shows tracking and keplerian element data for the satellite.

Feedback or suggestion? Click here.




ElementValue
Catalog53137
NameSTARLINK-4145
Epoch Orbit1171
Epoch Day270.25001157
Epoch Year2022
RAAN67.9702
Inclination53.2193
Eccentricity0.0001539
Argument of Perigee49.9207
Mean Anonmoly318.4402
Mean Motion15.08824924
Decay Rate0.00034338
L11 53137U 22083F 22270.25001157 .00034338 00000+0 21660-2 0 9995
L22 53137 53.2193 67.9702 0001539 49.9207 318.4402 15.08824924 11719

Live tracking and technical data element details for STARLINK-4145 (NORAD 53137). STARLINK-4145 can be tracked NOW for your location showing map with azimuth and elevation plus other details from your city location.

Track the satellite on the map from your city or location and see movement details for azimuth, elevation, latitude, longitude, range, height, and movement on the map or in text.







IsCatalogInMostPopularTable: catalog: 53137, numindb: 8
Update: records affected: 1



GetName: 53137 STARLINK-4145

Hit Count: updated at: Wed, 28 Sep 2022 22:34:18 GMT